Home > Weather > Fresno > Past weeks

Flag for USA Past Weather in Fresno, California, USA — Yesterday and Last 2 Weeks

Now
82 °F

Sunny.


Feels Like: 81 °F
Forecast: 71 / 107 °F
Wind: 7 mph from East

Location: Fresno Air Terminal

Current Time: Jul 26, 2016 at 9:15:37 AM

Latest Report: Jul 26, 2016 at 8:53 AM


Visibility: 9 mi

Pressure: 29.89 "Hg

Humidity: 40%

Dew Point: 55 °F

Location of FresnoLocation

Past Weather in Fresno — Graph

°F

Fresno Temperature Yesterday

Maximum temperature yesterday: 105 °F (at 4:53 PM)
Minimum temperature yesterday: 72 °F (at 5:53 AM)
Average temperature yesterday: 88 °F

High & Low Weather Summary for the Past Weeks

 TemperatureHumidityPressure
High105 °F (Jul 24, 5:53 PM)68% (Jul 19, 4:53 AM)30.07 "Hg (Jul 19, 4:53 AM)
Low64 °F (Jul 18, 5:53 AM)6% (Jul 24, 6:53 PM)29.74 "Hg (Jul 16, 4:53 PM)
Average83 °F31%29.89 "Hg
* Reported Jul 11 7:53 AM — Jul 26 7:53 AM, Fresno, Weather by CustomWeather, © 2016

Note: Actual official high and low records may vary slightly from our data, if they occured in-between our weather recording intervals... More about our weather records

Advertising

Fresno Weather History for the Previous 24 Hours

Scroll right to see more
 ConditionsComfort  
Time TempWeatherWind HumidityBarometerVisibility
7:53 AM
Tue, Jul 26
76 °FSunny.No wind47%29.88 "Hg10 mi
6:53 AM72 °FClear.6 mph53%29.86 "Hg10 mi
5:53 AM71 °FClear.3 mph55%29.85 "Hg10 mi
4:53 AM72 °FClear.3 mph52%29.84 "Hg10 mi
3:53 AM73 °FClear.5 mph50%29.84 "Hg10 mi
2:53 AM76 °FClear.5 mph45%29.84 "Hg10 mi
1:53 AM75 °FClear.7 mph47%29.84 "Hg10 mi
12:53 AM80 °FClear.9 mph42%29.83 "Hg10 mi
11:53 PM
Mon, Jul 25
83 °FClear.9 mph37%29.83 "Hg10 mi
10:53 PM85 °FClear.12 mph36%29.82 "Hg10 mi
9:53 PM90 °FClear.9 mph28%29.82 "Hg10 mi
8:53 PM94 °FPassing clouds.10 mph19%29.80 "Hg10 mi
7:53 PM98 °FScattered clouds.10 mph19%29.80 "Hg10 mi
6:53 PM102 °FScattered clouds.10 mph14%29.79 "Hg10 mi
5:53 PM104 °FPassing clouds.5 mph12%29.79 "Hg10 mi
4:53 PM105 °FPassing clouds.9 mph12%29.80 "Hg10 mi
3:53 PM104 °FPassing clouds.6 mph14%29.82 "Hg10 mi
2:53 PM103 °FSunny.7 mph15%29.83 "Hg10 mi
1:53 PM99 °FSunny.9 mph20%29.85 "Hg10 mi
12:53 PM98 °FSunny.3 mph19%29.87 "Hg10 mi
11:53 AM93 °FSunny.3 mph25%29.88 "Hg10 mi
10:53 AM88 °FSunny.3 mph29%29.89 "Hg10 mi
9:53 AM85 °FSunny.8 mph30%29.89 "Hg10 mi
Weather by CustomWeather, © 2016

See weather overviewHow to use our weather pages